[[{"header":{"parameterUnit":"m.s-1","parameterCategory":1,"la1":30.2991,"la2":30.254,"lo1":-89.0895,"lo2":-89.0444,"dy":0.0017,"dx":0.0017,"nx":28,"ny":28,"refTime":"2024-03-01T03:00:00:Z","depth":0,"parameterNumber":2,"parameterNumberName":"U-component_of_WINDS"},"data":[0,0,0,0,0,0,0,0,0,0,0,0,0,0,0,0,0,0,0,0,0,0,0,0,0,0,0,0,0,0,0,0,0,0,0,0,0,0,0,0,0,0,0,0,0,0,0,0,0,0,0,0,0,0,0,0,0,0,-6.2014,-6.2015,0,-6.218,-6.2181,-6.2183,-6.2185,-6.2183,-6.2181,-6.2179,-6.2346,-6.2352,-6.2359,0,0,0,0,0,0,0,0,0,0,0,0,0,-6.1697,-6.1703,-6.2013,-6.2016,-6.2018,-6.2179,-6.2182,-6.2184,-6.2185,-6.2183,-6.218,-6.2178,-6.2344,-6.2351,-6.2359,0,0,0,0,0,0,0,0,0,0,0,0,0,-6.1846,-6.1705,-6.2013,-6.2038,-6.2042,-6.2179,-6.2182,-6.2184,-6.2186,-6.2183,-6.2179,-6.2176,-6.2341,-6.2351,-6.236,-6.2483,0,0,-6.239,-6.2394,0,0,0,0,0,0,0,0,-6.1837,-6.1857,-6.2032,-6.2036,-6.2041,-6.2158,-6.2131,-6.2284,-6.2187,-6.2131,-6.2179,-6.2175,-6.2286,-6.23,-6.2338,-6.2491,-6.2498,-6.239,-6.2396,-6.24,-6.2403,0,0,0,0,0,0,0,-6.1827,-6.185,-6.2079,-6.2035,-6.204,-6.2041,-6.2058,-6.216,-6.2224,-6.2136,-6.2136,-6.2156,-6.2288,-6.2329,-6.2342,-6.25,-6.239,-6.2399,-6.2405,-6.2408,-6.2764,-6.2767,0,0,0,0,0,0,-6.1812,-6.1842,-6.2074,-6.2084,-6.1929,-6.2049,-6.2068,-6.2124,-6.2223,-6.2235,-6.2158,-6.2155,-6.2314,-6.2331,-6.2348,-6.2498,-6.24,-6.2409,-6.2415,-6.276,-6.2765,-6.2769,0,0,0,0,0,0,-6.1805,-6.1833,-6.2067,-6.1963,-6.1993,-6.2058,-6.212,-6.2129,-6.217,-6.224,-6.2251,-6.2188,-6.2312,-6.2334,-6.245,-6.2504,-6.2414,-6.2422,-6.2756,-6.2762,-6.2767,-6.2799,0,0,0,0,0,0,-6.1796,-6.183,-6.1877,-6.1964,-6.1999,-6.2166,-6.2123,-6.2134,-6.2186,-6.2184,-6.2271,-6.2283,-6.2311,-6.2435,-6.2459,-6.2515,-6.243,-6.2751,-6.2758,-6.2765,-6.2794,-6.2805,-6.2815,0,0,0,0,0,-6.1785,-6.1879,-6.188,-6.1908,-6.2059,-6.217,-6.2189,-6.222,-6.2191,-6.2239,-6.2285,-6.228,-6.2495,-6.2447,-6.2474,-6.2534,-6.2748,-6.2756,-6.2764,-6.2789,-6.2803,-6.2815,0,0,0,0,0,0,-6.1795,-6.1891,-6.1892,-6.2018,-6.2086,-6.217,-6.223,-6.2234,-6.2311,-6.2305,-6.2341,-6.2361,-6.2476,-6.2517,-6.2462,-6.2659,-6.2618,-6.2632,-6.2627,-6.2641,-6.2652,-6.2638,-6.2438,0,0,0,0,0,-6.1812,-6.1894,-6.1974,-6.2076,-6.2111,-6.2165,-6.2214,-6.2233,-6.2304,-6.2333,-6.2387,-6.2456,-6.2539,-6.2593,-6.2673,-6.2801,-6.282,-6.2856,-6.2866,-6.2875,-6.2886,-6.2957,-6.2973,-6.2796,-6.2796,-6.2795,0,0,-6.1847,-6.191,-6.1959,-6.208,-6.2135,-6.2219,-6.2189,-6.2279,-6.2342,-6.2346,-6.2458,-6.2501,-6.2581,-6.2703,-6.276,-6.2741,-6.294,-6.2885,-6.2892,-6.2898,-6.2967,-6.2984,-6.2999,-6.2801,-6.28,-6.2799,0,0,-6.1954,-6.2011,-6.2103,-6.2159,-6.2243,-6.228,-6.2302,-6.2387,-6.2415,-6.2529,-6.2535,-6.2611,-6.2753,-6.2809,-6.2857,-6.299,-6.2988,-6.3015,-6.307,-6.3139,-6.3153,-6.3166,-6.3212,-6.3229,-6.3026,-6.3027,-6.3027,0,-6.1987,-6.2114,-6.2149,-6.224,-6.2293,-6.2304,-6.2397,-6.245,-6.2556,-6.2592,-6.2571,-6.2751,-6.2805,-6.2941,-6.2974,-6.3013,-6.3039,-6.3004,-6.3149,-6.3161,-6.3174,-6.3218,-6.3236,-6.3029,-6.3029,-6.3029,-6.3028,0,-6.2151,-6.2239,-6.2304,-6.2407,-6.2468,-6.256,-6.2608,-6.2666,-6.2681,-6.2719,-6.2836,-6.2902,-6.2996,-6.3031,-6.3045,-6.317,-6.3156,-6.3141,-6.31,-6.3193,-6.3235,-6.3253,-6.3033,-6.3032,-6.3031,-6.303,0,0,-6.2264,-6.2389,-6.2412,-6.2459,-6.2555,-6.2624,-6.2717,-6.2811,-6.2859,-6.2933,-6.3012,-6.3134,-6.3122,-6.3176,-6.3198,-6.3259,-6.3359,-6.3237,-6.3239,-6.3256,-6.35,-6.3509,-6.3528,-6.3361,-6.3364,-6.3367,-6.3493,0,-6.2381,-6.2546,-6.2582,-6.2725,-6.2807,-6.2821,-6.2902,-6.297,-6.3009,-6.3085,-6.3129,-6.3214,-6.3192,-6.3225,-6.3286,-6.3334,-6.3408,-6.3326,-6.3433,-6.3436,-6.341,-6.3551,-6.356,-6.3676,-6.351,-6.3513,-6.3515,0,-6.2537,-6.2616,-6.2768,-6.2855,-6.289,-6.2963,-6.3053,-6.3125,-6.3203,-6.3227,-6.329,-6.3306,-6.3403,-6.336,-6.3495,-6.3438,-6.3485,-6.3515,-6.3521,-6.3529,-6.3479,-6.3562,-6.3713,-6.373,-6.3542,-6.354,-6.3538,0,-6.2604,-6.2749,-6.2858,-6.2899,-6.3003,-6.3053,-6.3099,-6.3174,-6.3228,-6.3307,-6.3343,-6.3432,-6.348,-6.3549,-6.3589,-6.3554,-6.3721,-6.3681,-6.3743,-6.3742,-6.3775,-6.3772,-6.3934,-6.3809,-6.3809,-6.3808,-6.3808,0,-6.2728,-6.282,-6.289,-6.2957,-6.3061,-6.3102,-6.3203,-6.3249,-6.3316,-6.3392,-6.341,-6.3481,-6.353,-6.3608,-6.364,-6.3747,-6.3769,-6.3791,-6.3798,-6.3789,-6.3785,-6.3817,-6.381,-6.3813,-6.3812,-6.3811,-6.381,0,-6.2818,-6.2869,-6.2989,-6.3079,-6.3104,-6.3176,-6.3253,-6.3319,-6.3361,-6.3457,-6.3482,-6.3547,-6.364,-6.3688,-6.3804,-6.3825,-6.3945,-6.3948,-6.3919,-6.3921,-6.3981,-6.3974,-6.4167,-6.4195,-6.4053,-6.4054,-6.4055,0,-6.2893,-6.2965,-6.3063,-6.3116,-6.3163,-6.3248,-6.3305,-6.3349,-6.3407,-6.3503,-6.3558,-6.3652,-6.373,-6.3879,-6.3936,-6.4025,-6.4029,-6.4091,-6.4042,-6.4031,-6.4029,-6.4023,-6.403,-6.4099,-6.41,-6.4101,-6.4102,0,-6.3021,-6.3043,-6.3124,-6.3216,-6.3283,-6.3357,-6.343,-6.3472,-6.3528,-6.3593,-6.3689,-6.375,-6.387,-6.3964,-6.4058,-6.4105,-6.4113,-6.4118,-6.4136,-6.4126,-6.4106,-6.4116,-6.3941,-6.4112,-6.4111,-6.411,-6.411,-6.4109,-6.3105,-6.3169,-6.3249,-6.334,-6.34,-6.3468,-6.3535,-6.3586,-6.3667,-6.3769,-6.379,-6.3892,-6.397,-6.4098,-6.4148,-6.4229,-6.4215,-6.4243,-6.4249,-6.4255,-6.4257,-6.4095,-6.4246,-6.4246,-6.4246,-6.4245,-6.4245,0,-6.3232,-6.3285,-6.3368,-6.347,-6.3542,-6.3546,-6.3628,-6.3687,-6.3777,-6.3849,-6.3927,-6.4038,-6.413,-6.4196,-6.4289,-6.4341,-6.4347,-6.4364,-6.436,-6.437,-6.4264,-6.4238,-6.4358,-6.4358,-6.4358,-6.4358,-6.4358,-6.4357,-6.3306,-6.3416,-6.3448,-6.3588,-6.364,-6.3741,-6.3787,-6.3851,-6.3909,-6.4033,-6.411,-6.4153,-6.4223,-6.4323,-6.4407,-6.4424,-6.4457,-6.4474,-6.4491,-6.439,-6.4378,-6.4366,-6.4341,-6.4481,-6.4481,-6.459,-6.4591,-6.4591]},{"header":{"parameterUnit":"m.s-1","parameterCategory":1,"la1":30.2991,"la2":30.254,"lo1":-89.0895,"lo2":-89.0444,"dy":0.0017,"dx":0.0017,"nx":28,"ny":28,"refTime":"2024-03-01T03:00:00:Z","depth":0,"parameterNumber":3,"parameterNumberName":"V-component_of_WINDS"},"data":[0,0,0,0,0,0,0,0,0,0,0,0,0,0,0,0,0,0,0,0,0,0,0,0,0,0,0,0,0,0,0,0,0,0,0,0,0,0,0,0,0,0,0,0,0,0,0,0,0,0,0,0,0,0,0,0,0,0,5.7348,5.7349,0,5.7473,5.7475,5.7476,5.743,5.7427,5.7424,5.7421,5.7546,5.7552,5.7558,0,0,0,0,0,0,0,0,0,0,0,0,0,5.7067,5.7073,5.7348,5.7349,5.7351,5.7473,5.7475,5.7477,5.743,5.7427,5.7423,5.742,5.7544,5.7551,5.7558,0,0,0,0,0,0,0,0,0,0,0,0,0,5.719,5.7074,5.7347,5.7343,5.7343,5.7473,5.7475,5.7477,5.7431,5.7427,5.7422,5.7418,5.7542,5.755,5.7559,5.7699,0,0,5.7586,5.759,0,0,0,0,0,0,0,0,5.7183,5.7201,5.7342,5.7343,5.7344,5.7432,5.7422,5.7551,5.7432,5.7398,5.7421,5.7416,5.7511,5.7522,5.7555,5.7705,5.7711,5.7587,5.7593,5.7596,5.7599,0,0,0,0,0,0,0,5.7175,5.7195,5.7397,5.7344,5.7345,5.7334,5.7347,5.7446,5.7476,5.74,5.7397,5.7413,5.7511,5.7546,5.7558,5.7712,5.7587,5.7595,5.76,5.7604,5.7989,5.7993,0,0,0,0,0,0,5.7166,5.7188,5.7393,5.7401,5.7252,5.7343,5.7357,5.7408,5.7475,5.7482,5.7416,5.741,5.7533,5.7547,5.7562,5.7733,5.7596,5.7605,5.761,5.7984,5.799,5.7995,0,0,0,0,0,0,5.716,5.7185,5.7388,5.7294,5.7319,5.7352,5.7409,5.7412,5.7448,5.7488,5.7493,5.7447,5.753,5.7549,5.7667,5.7737,5.7609,5.7617,5.7978,5.7986,5.7992,5.8075,0,0,0,0,0,0,5.7152,5.7183,5.7236,5.7296,5.7324,5.7491,5.7414,5.7418,5.7464,5.7457,5.7518,5.7524,5.7529,5.7654,5.7676,5.7747,5.7624,5.7972,5.7982,5.799,5.8066,5.8084,5.81,0,0,0,0,0,5.7143,5.7253,5.7239,5.7264,5.7392,5.7495,5.7512,5.7516,5.747,5.7524,5.7551,5.7522,5.7726,5.7666,5.7691,5.7765,5.7968,5.7979,5.7989,5.8059,5.8081,5.81,0,0,0,0,0,0,5.7198,5.726,5.7246,5.7379,5.7433,5.7487,5.7555,5.7539,5.7605,5.7596,5.7598,5.7612,5.7734,5.7761,5.7694,5.7907,5.784,5.7856,5.7884,5.7906,5.7922,5.7912,5.7631,0,0,0,0,0,5.7226,5.7306,5.7356,5.7468,5.7496,5.7522,5.7567,5.7567,5.7622,5.7643,5.7678,5.7732,5.7809,5.7859,5.7931,5.8071,5.8085,5.8135,5.8151,5.8165,5.8179,5.8258,5.8282,5.8031,5.8031,5.8031,0,0,5.7284,5.7328,5.7378,5.7481,5.7522,5.7605,5.7541,5.763,5.7692,5.7656,5.7771,5.7799,5.7859,5.799,5.8049,5.8016,5.8252,5.8179,5.8189,5.8196,5.8272,5.8296,5.8317,5.8038,5.8037,5.8036,0,0,5.7432,5.7473,5.7573,5.7617,5.7683,5.77,5.7724,5.7783,5.7801,5.7916,5.7893,5.7966,5.8097,5.8143,5.8183,5.8355,5.8332,5.8378,5.8465,5.8543,5.8562,5.858,5.8643,5.8666,5.8392,5.8392,5.8392,0,5.7495,5.762,5.7626,5.7719,5.7766,5.7741,5.7843,5.7885,5.797,5.8003,5.7966,5.8134,5.8172,5.8315,5.8358,5.839,5.8419,5.837,5.8559,5.8577,5.8593,5.8654,5.8677,5.8398,5.8397,5.8396,5.8396,0,5.7696,5.7783,5.7856,5.7942,5.7997,5.8094,5.8115,5.817,5.8167,5.8188,5.8308,5.8354,5.8438,5.8472,5.8467,5.8615,5.8593,5.8558,5.849,5.8623,5.8679,5.8702,5.8405,5.8403,5.8402,5.84,0,0,5.7878,5.7971,5.7997,5.8038,5.8111,5.8178,5.8275,5.8359,5.8407,5.8468,5.855,5.8665,5.8634,5.868,5.8681,5.8749,5.8886,5.8706,5.8708,5.8739,5.9054,5.9081,5.9107,5.8872,5.8876,5.888,5.905,0,5.8033,5.8205,5.8216,5.8371,5.8454,5.8434,5.8519,5.8573,5.8597,5.867,5.8696,5.8778,5.8731,5.8759,5.8826,5.8855,5.8949,5.8843,5.8949,5.8952,5.8934,5.9136,5.9164,5.9321,5.9072,5.9076,5.9078,0,5.8236,5.8307,5.8471,5.8537,5.8572,5.8648,5.8728,5.8798,5.886,5.8873,5.8928,5.8921,5.9021,5.8952,5.9092,5.902,5.9064,5.9086,5.9092,5.9102,5.9023,5.9152,5.9372,5.9396,5.9113,5.911,5.9108,0,5.8355,5.8491,5.8608,5.8643,5.8722,5.8777,5.8812,5.887,5.8921,5.8991,5.9025,5.9105,5.9149,5.9212,5.9227,5.9175,5.9368,5.9299,5.9382,5.9382,5.9422,5.942,5.9653,5.9451,5.945,5.945,5.9449,0,5.8527,5.8629,5.8664,5.8735,5.885,5.8862,5.8975,5.9007,5.906,5.9138,5.9126,5.92,5.9216,5.9293,5.9306,5.9421,5.9441,5.9455,5.9457,5.9456,5.9455,5.9485,5.9474,5.9456,5.9455,5.9454,5.9453,0,5.8678,5.8706,5.8833,5.8898,5.8918,5.8999,5.9056,5.9126,5.915,5.925,5.9274,5.9311,5.9403,5.9425,5.9532,5.9541,5.9678,5.9669,5.9658,5.9657,5.974,5.9732,6.0001,6.0038,5.9811,5.9813,5.9815,0,5.8786,5.8865,5.8941,5.8994,5.9033,5.9117,5.9171,5.9187,5.9243,5.9323,5.9384,5.9474,5.9547,5.9693,5.973,5.9813,5.9807,5.9896,5.9819,5.9818,5.981,5.9806,5.9815,5.991,5.9912,5.9914,5.9916,0,5.8976,5.8987,5.9065,5.915,5.9215,5.9282,5.9346,5.939,5.9415,5.9479,5.9574,5.9631,5.9743,5.9834,5.9919,5.9954,5.9941,5.994,5.9964,5.9964,5.9955,5.9963,5.9698,5.9933,5.9932,5.993,5.9929,5.9929,5.911,5.9181,5.9247,5.9335,5.9386,5.9447,5.9518,5.9553,5.9632,5.9726,5.9731,5.9834,5.9898,6.0011,6.0053,6.0134,6.0107,6.0141,6.015,6.0159,6.0167,5.9942,6.015,6.0149,6.0149,6.0148,6.0148,0,5.93,5.9343,5.9425,5.9517,5.9588,5.9571,5.9642,5.9702,5.9794,5.9856,5.9929,6.004,6.0129,6.0174,6.0263,6.032,6.0316,6.0342,6.0338,6.0348,6.0185,6.0156,6.0344,6.0344,6.0344,6.0344,6.0344,6.0344,5.9408,5.9528,5.9547,5.9693,5.9734,5.9837,5.988,5.9937,5.9987,6.0112,6.0186,6.0217,6.0273,6.0366,6.0448,6.0459,6.0493,6.0523,6.0531,6.0378,6.0358,6.0339,6.0312,6.053,6.053,6.0687,6.0689,6.069]}]]